Hourly Data Report for January 04, 2002

SHERBROOKE A
QUEBEC

45°26'00.000" N
71°41'00.000" W
241.40 m
7028124
71610
YSC

Download Data

Hourly Data (January 2002)
Hourly Data Report for January 4, 2002
TIME
LST
Temp Definition
°C
Dew Point Definition
°C
Rel Hum Definition
%
Precip. Amount Definition
mm

Wind Dir Definition
10's deg

Wind Spd Definition
km/h
Visibility Definition
km
Stn Press Definition
kPa
Hmdx Definition


Wind Chill Definition


Weather Definition


00:00 -9.9 -17.1 56   30 15 15.0 98.07   -17  
01:00 -11.5 -17.9 59   30 11 15.0 98.14   -17  
02:00 -11.9 -18.7 57   31 7 15.0 98.26   -16  
03:00 -13.9 -19.3 64   30 4 15.0 98.30   -17  
04:00 -15.1 -19.4 70   28 7 15.0 98.29   -20  
05:00 -14.8 -19.6 67   32 7 15.0 98.31   -20  
06:00 -16.7 -20.5 72   29 6 15.0 98.35   -21  
07:00 -19.2 -21.7 81   21 6 15.0 98.37   -24  
08:00 -20.6 -23.1 80   14 4 24.1 98.44   -24 Mainly Clear
09:00 -16.2 -20.2 71   20 6 24.1 98.49   -21 Mainly Clear
10:00 -13.5 -18.3 67   20 7 24.1 98.48   -18 Mainly Clear
11:00 -12.1 -17.8 62   21 11 24.1 98.40   -18 Mainly Clear
12:00 -10.7 -17.2 59   24 11 24.1 98.31   -16 Mainly Clear
13:00 -8.6 -16.6 52   22 6 24.1 98.23   -12 Mainly Clear
14:00 -7.7 -16.4 50   25 9 24.1 98.19   -12 Mostly Cloudy
15:00 -7.5 -16.0 51   24 13 24.1 98.18   -13 Mostly Cloudy
16:00 -7.7 -15.3 54   22 6 24.1 98.14   -11 Cloudy
17:00 -8.3 -14.4 61   16 6 19.3 98.10   -12 Snow
18:00 -8.0 -13.9 62   15 4 15.0 98.08   -10 Snow
19:00 -7.3 -12.1 68   17 4 15.0 98.07   -9  
20:00 -7.6 -11.5 74     0 12.9 98.03      
21:00 -7.9 -11.4 76     0 11.3 98.00      
22:00 -8.9 -11.9 79   33 4 15.0 97.97   -11  
23:00 -6.3 -10.0 75   19 7 15.0 97.98   -10  

Notes on Data Quality.

Legend

  • E = Estimated
  • M = Missing
  • NA = Not Available*
  • [empty] = Indicates an unobserved value
Date modified: